Retour au catalogue

STARLINK-34624

ActifCommunicationsVLEO
NORAD 64805·PAYLOAD·🇺🇸 United States

Lancé Jul 16, 2025 depuis Vandenberg Space Force Base

Loading…

Prochains Passages (prochaines 24 heures)

TLE

FraisSource: CelesTrak SupGP

Époque: Sep 15, 2026, 03:30 UTC

1 64805C 25150R   26258.14631944  .00058981  00000+0  49427-2 0  2587
2 64805  70.0031  16.8764 0003113 267.8060  62.3443 14.98301913    17

Suivez STARLINK-34624 en temps réel avec AllMySat

Download on the App Store